Showing default

VIGORIDE 5, 55056

Orbit data source: Space-Track

VIGORIDE 5, 55056 is a payload satellite owned by Momentus (US) in SSO that was launched on Tue, 03 Jan 2023 UTC via an FALCON 9 launch vehicle from the Air Force Eastern Test Range (AFETR). Payload-class satellites include a variety of spacecraft equipped with specific instruments for various scientific and technological missions. These include communications satellites like Starlink; space stations such as the ISS; scientific satellites like the Hubble; Earth observation satellites from companies like Planet Labs, Umbra, and HawkEye 360; GPS; miniature CubeSats for education and research; and military/defense satellites.

Loading next visibility...
Identifier
55056, 2023-001AZ
Orbit
SSO
Country
Flag of USUS
Related business
Manufacturer
Momentus
Mission
Operational Commercial Technology
Bus & Motor
VIGORIDE, AOCS
Mass
363 kg wet, 292 kg dry
Launch date (UTC)
2023-01-03 (3 years ago)
Launch vehicle
FALCON 9
Launch site
Air Force Eastern Test Range (AFETR)
Object type
Payload
Rocket body
Debris
Shape & HBR
Box + 2 Pan, 3.3 m
Radar Cross Section
1.548 m², Large (>1 m²)

Expand to show TLE details & history
Last TLE update: 6 hours ago

TLE from 6 hours ago
0 VIGORIDE 5
1 55056U 23001AZ  26166.46379772  .00051885  00000-0  61283-3 0  9993
2 55056  97.3224 237.8962 0006400 155.8597 204.2962 15.61144567192396
Epoch: 2026-06-15T11:07Z
TLE epoch observation values (Epoch: 2026-06-15T11:07:52.123Z)
Latitude
0.00004°
Longitude
167.1792°
Altitude
391.444 km
Speed
7.673 km/s
True Right ascension
15h 51m 35s
True Declination
0° 00' 00"
Sunlit
Object was in full shadow at epoch
Visualization orbit readout
Latitude
Unknown
Longitude
Unknown
Altitude
Unknown
Speed
Unknown
Apparent Right ascension
Unknown
Apparent Declination
Unknown
Sunlit
N/A
Visualization observer readout
Local Sidereal Time
03:54:36
Azimuth
Unknown
Elevation
Unknown
Doppler factor
Unknown
Orbital elements
Apogee altitude
385.583 km
Perigee altitude
376.931 km
Semi-major axis
6,759.394 km
Eccentricity
0.00064
Inclination
97.3224°
RAAN
237.8962°
Arg. of periapsis
155.8597°
True anomaly
204.26605°
Mean anomaly
204.2962°
Eccentric anomaly
204.28112°
Mean motion
3.90554 °/min
Orbital period
92.18 mins
BSTAR
0.00061283
Loading maneuver chart data...
Computing Atmospheric mass density...
Loading historical data...
Loading historical data...
Loading historical data...
Loading historical data...
Loading historical data...
Loading historical data...
Loading historical data...

Documentation

Showing up to 5 results
|